{"data":{"norad_id":56964,"epoch":"2026-09-21T21:32:43.249056Z","epoch_age_seconds":78828,"freshness":"FRESH","line1":"1 56964U 23084AJ  26264.89772279  .00003034  00000+0  10950-3 0  9995","line2":"2 56964  97.6408  44.0514 0010364   6.5576 353.5797 15.29286050182005","mean_motion":15.2928605,"eccentricity":0.0010364,"inclination_deg":97.6408,"raan_deg":44.0514,"arg_perigee_deg":6.5576,"mean_anomaly_deg":353.5797,"bstar":0.0001095,"rev_number":18200,"period_min":94.16158605514,"perigee_km":470.83967463333,"apogee_km":485.0509620628,"semimajor_km":6856.0823183481,"source":"CELESTRAK","updated_at":"2026-09-22T09:00:25.995978Z"}}